Regional Weather Roundup
Issued by NWS

Home | Current Version | Previous Version | Text Only | Print | Product List | Glossary Off
Versions: 1 2 3 4 5 6 7 8 9 10 11 12 13 14 15 16 17 18 19 20 21 22 23 24 25 26 27 28 29 30 31 32 33 34 35 36 37 38 39 40 41 42 43 44 45 46 47 48 49 50

000
ASUS43 KTOP 040359
RWRKS

WEATHER ROUNDUP FOR KANSAS
NATIONAL WEATHER SERVICE GOODLAND KS
1100 PM CDT SUN MAY 03 2015

NOTE:  "FAIR" INDICATES FEW OR NO CLOUDS BELOW 12,000 FEET WITH NO
SIGNIFICANT WEATHER AND/OR OBSTRUCTIONS TO VISIBILITY.

KSZ001>006-013>018-027>032-041>047-040500-
NORTHWEST KANSAS

CITY           SKY/WX    TMP DP  RH WIND       PRES   REMARKS
GOODLAND       CLOUDY    68  45  43 E18G24    29.97R
HAYS           CLOUDY    70  48  46 SW16G29   29.84S
HILL CITY      TSTM      64  57  78 W20G26    29.89R
RUSSELL        CLOUDY    73  50  44 SW18G28   29.82R
$$

KSZ061>065-074>080-084>089-040500-
SOUTHWEST KANSAS

CITY           SKY/WX    TMP DP  RH WIND       PRES   REMARKS
DODGE CITY     LGT RAIN  67  49  52 W5        29.91F
ELKHART          N/A     62  51  67 N2          N/A
GARDEN CITY    CLOUDY    65  48  54 E8        29.95R
LIBERAL        CLOUDY    64  52  63 E16       29.94F
$$

KSZ066>073-081>083-090>101-040500-
SOUTHEAST KANSAS

CITY           SKY/WX    TMP DP  RH WIND       PRES   REMARKS
CHANUTE        CLEAR     65  57  75 S9        29.95R
COFFEYVILLE    CLEAR     68  57  68 S9        29.94R
MEDICINE LODGE   N/A     70  60  70 S8        29.91R
NEWTON         PTCLDY    70  52  52 S16       29.92R
PARSONS        CLEAR     67  57  70 S5        29.96R
WICHITA INTL   MOCLDY    69  54  58 S14       29.90R
WICHITA JABRA  MOCLDY    70  53  54 S18G26    29.90R
WINFIELD       CLOUDY    67  53  61 S13       29.93R
$$

KSZ007>012-019>026-033>040-048>060-102>105-040500-
NORTHEAST KANSAS

CITY           SKY/WX    TMP DP  RH WIND       PRES   REMARKS
CONCORDIA      PTCLDY    73  58  59 S21G31    29.81R
EMPORIA        CLEAR     68  56  65 S15       29.90R
LAWRENCE       PTCLDY    71  57  61 S10       29.90R
MANHATTAN      CLEAR     73  58  59 S9        29.86R
OLATHE IND     PTCLDY    70  57  63 S15       29.92R
OLATHE EXE     PTCLDY    70  57  63 SW13      29.92R
SALINA         MOCLDY    73  60  63 S15G23    29.86R
TOPEKA BILLARD PTCLDY    73  57  57 S13G21    29.88R
TOPEKA FORBES  PTCLDY    73  57  57 S14G24    29.89R
$$



USA.gov is the U.S. government's official web portal to all federal, state and local government web resources and services.